User: anonymous
Location: Elk Forest
(39.5314°N, 75.8738°W)
Time: 22:19:55
(UTC-04:00)
Language:

Resurs 01 Rocket - Orbit

View from above orbital plane
View from above orbital plane
View from above satellite
View from above satellite

Ground track
Ground track

The orbit data is extracted from the following two-line orbital elements,

1 23343U 94074B   14245.49739468  .00000195  00000-0  35913-4 0   952
2 23343 098.2261 250.7848 0008451 097.3024 018.8279 14.76175017 66503
Epoch (UTC): 02 September 2014 11:56:14
Eccentricity: 0.0008451
inclination: 98.2261°
perigee height: 635 km
apogee height: 647 km
right ascension of ascending node: 250.7848°
argument of perigee: 97.3024°
revolutions per day: 14.76175017
mean anomaly at epoch: 18.8279°
orbit number at epoch: 6650

The dashed part of the orbit path shows where the satellite is in the earth's shadow,  

DLR